Simultaneous Nadir Overpasses (SNOs) Predictions

Prediction of SNOs between NOAA-20 and NOAA-19 Satellite Orbit:

Table of predicted SNOs for the next 14.0 days since TLE Epoch: 4/3/2020
Index Date (NOAA-20) Time (NOAA-20) Lat,Lon (NOAA-20) SZA (NOAA-20 ) Date (NOAA-19) Time (NOAA-19) Lat,Lon (NOAA-19) SZA (NOAA-19 ) Distance(km) Time Diff (sec)
1 04/16/2020 20:59:02 -79.46, 11.55 109.28 04/16/2020 20:57:50 -79.46, 11.63 109.26 1.57 72
2 04/16/2020 21:49:47 79.45, 178.94 70.70 04/16/2020 21:48:52 79.46, 178.91 70.73 1.35 55
3 04/16/2020 22:40:32 -79.46, -13.85 109.30 04/16/2020 22:39:51 -79.45, -13.97 109.28 3.04 41
4 04/16/2020 23:31:17 79.45, 153.53 70.68 04/16/2020 23:30:52 79.48, 153.60 70.70 3.19 25
5 04/17/2020 00:22:02 -79.47, -39.25 109.32 04/17/2020 00:21:51 -79.47, -39.29 109.31 0.84 11
6 04/17/2020 01:12:47 79.46, 128.13 70.66 04/17/2020 01:12:53 79.47, 128.00 70.68 3.04 6
7 04/17/2020 02:03:32 -79.47, -64.66 109.34 04/17/2020 02:03:51 -79.48, -64.61 109.34 1.76 19
8 04/17/2020 02:54:17 79.46, 102.73 70.64 04/17/2020 02:54:53 79.49, 102.68 70.65 3.19 36
9 04/17/2020 03:45:02 -79.47, -90.06 109.36 04/17/2020 03:45:52 -79.47, -90.22 109.36 3.22 50
10 04/17/2020 04:35:48 79.50, 77.05 70.68 04/17/2020 04:36:54 79.48, 77.08 70.63 2.25 66




NCC Satellite Simultaneous Nadir Overpasses (SNOs) Prediction Service
